Date String (YYYY-MM-DD hh:mm:ss) UTC,Instrument flags,Ambient pressure (hPa),Sample flow (lpm),Bypass flow (lpm),Sample temperature (°C),Ambient temperature (°C),ASC tube jacket temperature (°C),LED temperature (°C),Box temperature (°C),Sample RH (%),Span deviation,Mass concentration (μg/m³),Mass concentration (μg/m³),Mass concentration (μg/m³)
DateTimeUTC,F1_M11,P_M11,Q1_M11,Q2_M11,T1_M11,T2_M11,T3_M11,T4_M11,T5_M11,U1_M11,ZSPAN_M11,X2_M11,X0_M11,X1_M11
2022-07-05 22:00:00,,0825.7,4.98,0.00,29.2,26.9,00.0,37.9,31.0,23.1,0000.0,0001.90,0007.85,0001.22
2022-07-05 22:01:00,,0825.7,5.00,0.00,29.2,27.1,00.0,37.9,31.0,23.1,0000.0,0001.83,0007.41,0001.22
2022-07-05 22:02:00,,0825.6,5.01,0.00,29.2,27.3,00.0,37.9,31.0,23.1,0000.0,0001.84,0007.28,0001.21
2022-07-05 22:03:00,,0825.8,5.00,0.00,29.2,27.5,00.0,37.9,31.0,23.0,0000.0,0001.77,0006.28,0001.19
2022-07-05 22:04:00,,0825.8,5.00,0.00,29.2,27.7,00.0,37.9,31.1,23.0,0000.0,0001.71,0006.14,0001.16
2022-07-05 22:05:00,,0825.9,5.01,0.00,29.2,27.8,00.0,38.0,31.2,23.0,0000.0,0001.67,0005.90,0001.13
2022-07-05 22:06:00,,0825.6,5.00,0.00,29.3,28.0,00.0,38.0,31.2,22.9,0000.0,0001.66,0007.03,0001.10
2022-07-05 22:07:00,,0825.6,5.00,0.00,29.3,28.1,00.0,38.0,31.3,22.7,0000.0,0001.58,0006.68,0001.08
2022-07-05 22:08:00,,0825.8,5.00,0.00,29.3,28.3,00.0,38.0,31.3,22.0,0000.0,0001.51,0006.04,0001.06
2022-07-05 22:09:00,,0825.9,5.00,0.00,29.4,28.3,00.0,38.0,31.4,21.9,0000.0,0001.48,0004.82,0001.06
2022-07-05 22:10:00,,0825.7,5.00,0.00,29.4,27.9,00.0,38.0,31.4,22.4,0000.0,0001.46,0004.61,0001.06
2022-07-05 22:11:00,,0826.0,5.01,0.00,29.4,27.1,00.0,37.9,31.2,21.0,0000.0,0001.46,0004.67,0001.07
2022-07-05 22:12:00,,0826.2,4.99,0.00,29.3,26.7,00.0,37.9,31.1,22.0,0000.0,0001.51,0004.87,0001.11
2022-07-05 22:13:00,,0826.2,5.00,0.00,29.3,26.8,00.0,37.9,31.0,22.7,0000.0,0001.52,0004.91,0001.09
2022-07-05 22:14:00,,0826.3,5.00,0.00,29.2,27.0,00.0,37.9,31.0,22.8,0000.0,0001.53,0004.96,0001.08
2022-07-05 22:15:00,,0826.4,5.00,0.00,29.2,27.2,00.0,37.9,31.0,22.4,0000.0,0001.57,0005.08,0001.09
2022-07-05 22:16:00,,0826.5,5.01,0.00,29.2,27.4,00.0,37.9,31.1,22.5,0000.0,0001.58,0005.00,0001.10
2022-07-05 22:17:00,,0826.5,5.00,0.00,29.2,27.6,00.0,37.9,31.1,22.7,0000.0,0001.54,0002.60,0001.10
2022-07-05 22:18:00,,0826.7,5.00,0.00,29.2,27.8,00.0,38.0,31.2,22.7,0000.0,0001.54,0002.62,0001.09
2022-07-05 22:19:00,,0826.9,5.00,0.00,29.3,27.9,00.0,38.0,31.2,22.8,0000.0,0001.54,0002.62,0001.08
2022-07-05 22:20:00,,0827.1,4.99,0.00,29.3,28.1,00.0,38.0,31.3,22.7,0000.0,0001.54,0002.81,0001.06
2022-07-05 22:21:00,,0827.1,5.00,0.00,29.3,28.2,00.0,38.0,31.3,22.6,0000.0,0001.56,0002.98,0001.07
2022-07-05 22:22:00,,0827.3,5.00,0.00,29.4,28.3,00.0,38.0,31.4,23.0,0000.0,0001.55,0002.81,0001.08
2022-07-05 22:23:00,,0827.4,5.01,0.00,29.4,28.4,00.0,38.0,31.4,24.8,0000.0,0001.55,0002.69,0001.09
2022-07-05 22:24:00,,0827.4,5.00,0.00,29.4,27.8,00.0,38.0,31.4,26.0,0000.0,0001.57,0002.66,0001.14
2022-07-05 22:25:00,,0827.4,5.00,0.00,29.4,27.0,00.0,38.0,31.2,27.2,0000.0,0001.73,0003.13,0001.18
2022-07-05 22:26:00,,0827.5,5.00,0.00,29.3,26.8,00.0,37.9,31.2,27.9,0000.0,0001.78,0003.26,0001.22
2022-07-05 22:27:00,,0827.5,5.00,0.00,29.3,26.9,00.0,38.0,31.1,28.6,0000.0,0001.88,0003.49,0001.27
2022-07-05 22:28:00,,0827.5,5.00,0.00,29.2,27.0,00.0,38.0,31.0,28.8,0000.0,0002.04,0004.75,0001.32
2022-07-05 22:29:00,,0827.5,5.00,0.00,29.2,27.2,00.0,38.0,31.0,29.4,0000.0,0002.23,0005.38,0001.39
2022-07-05 22:30:00,,0827.6,4.99,0.00,29.2,27.4,00.0,38.0,31.1,29.8,0000.0,0002.40,0005.84,0001.46
2022-07-05 22:31:00,,0827.6,4.99,0.00,29.2,27.6,00.0,38.0,31.1,29.5,0000.0,0002.51,0005.88,0001.53
2022-07-05 22:32:00,,0827.6,4.99,0.00,29.2,27.8,00.0,38.0,31.2,28.8,0000.0,0002.54,0005.78,0001.57
2022-07-05 22:33:00,,0827.6,5.00,0.00,29.3,27.9,00.0,38.0,31.2,28.1,0000.0,0002.60,0006.00,0001.60
2022-07-05 22:34:00,,0827.5,5.00,0.00,29.3,28.0,00.0,38.0,31.3,27.6,0000.0,0002.65,0006.06,0001.62
2022-07-05 22:35:00,,0827.6,5.01,0.00,29.3,28.2,00.0,38.0,31.3,27.6,0000.0,0002.68,0006.12,0001.65
2022-07-05 22:36:00,,0827.5,5.00,0.00,29.3,28.3,00.0,38.0,31.4,27.4,0000.0,0002.59,0005.93,0001.68
2022-07-05 22:37:00,,0827.5,5.01,0.00,29.4,28.3,00.0,38.0,31.4,27.1,0000.0,0002.59,0007.55,0001.71
2022-07-05 22:38:00,,0827.6,5.00,0.00,29.4,27.7,00.0,38.0,31.3,27.3,0000.0,0002.60,0007.58,0001.73
2022-07-05 22:39:00,,0827.5,5.00,0.00,29.4,27.3,00.0,38.0,31.3,27.9,0000.0,0002.53,0007.09,0001.75
2022-07-05 22:40:00,,0827.5,4.99,0.00,29.3,27.3,00.0,38.0,31.2,28.4,0000.0,0002.50,0007.06,0001.77
2022-07-05 22:41:00,,0827.6,5.01,0.00,29.3,27.4,00.0,38.0,31.1,28.7,0000.0,0002.43,0006.78,0001.78
2022-07-05 22:42:00,,0827.6,5.00,0.00,29.3,27.5,00.0,38.0,31.1,28.7,0000.0,0002.37,0006.59,0001.78
2022-07-05 22:43:00,,0827.7,4.99,0.00,29.3,27.6,00.0,38.0,31.2,28.7,0000.0,0002.36,0006.55,0001.79
2022-07-05 22:44:00,,0827.7,5.01,0.00,29.3,27.8,00.0,38.0,31.2,28.8,0000.0,0002.37,0007.03,0001.80
2022-07-05 22:45:00,,0827.7,4.99,0.00,29.3,27.9,00.0,38.0,31.2,28.9,0000.0,0002.36,0007.63,0001.80
2022-07-05 22:46:00,,0827.6,5.01,0.00,29.3,28.0,00.0,38.0,31.3,28.4,0000.0,0002.40,0007.70,0001.81
2022-07-05 22:47:00,,0827.7,5.00,0.00,29.3,28.1,00.0,38.0,31.3,27.6,0000.0,0002.43,0007.67,0001.81
2022-07-05 22:48:00,,0827.7,5.00,0.00,29.4,28.3,00.0,38.1,31.3,27.5,0000.0,0002.39,0005.98,0001.80
2022-07-05 22:49:00,,0827.7,4.99,0.00,29.4,28.3,00.0,38.1,31.4,28.0,0000.0,0002.36,0005.85,0001.79
2022-07-05 22:50:00,,0827.7,5.01,0.00,29.4,28.3,00.0,38.1,31.4,28.2,0000.0,0002.34,0005.40,0001.78
2022-07-05 22:51:00,,0827.7,5.00,0.00,29.4,27.5,00.0,38.0,31.3,28.1,0000.0,0002.27,0004.95,0001.78
2022-07-05 22:52:00,,0827.7,5.01,0.00,29.4,26.8,00.0,38.0,31.2,27.8,0000.0,0002.33,0005.11,0001.79
2022-07-05 22:53:00,,0827.7,5.01,0.00,29.3,26.7,00.0,38.0,31.1,28.0,0000.0,0002.36,0005.33,0001.80
2022-07-05 22:54:00,,0827.7,5.00,0.00,29.3,26.8,00.0,38.0,31.0,28.4,0000.0,0002.41,0005.49,0001.81
2022-07-05 22:55:00,,0827.7,4.99,0.00,29.2,26.9,00.0,38.0,31.0,28.7,0000.0,0002.43,0005.05,0001.81
2022-07-05 22:56:00,,0827.7,5.00,0.00,29.2,27.1,00.0,38.0,31.0,28.8,0000.0,0002.45,0004.14,0001.82
2022-07-05 22:57:00,,0827.8,5.01,0.00,29.2,27.3,00.0,38.0,31.1,29.0,0000.0,0002.44,0004.14,0001.82
2022-07-05 22:58:00,,0827.8,5.00,0.00,29.2,27.5,00.0,38.0,31.1,29.0,0000.0,0002.45,0004.05,0001.82
2022-07-05 22:59:00,,0827.8,5.00,0.00,29.2,27.7,00.0,38.0,31.1,28.8,0000.0,0002.51,0004.20,0001.83
